Regional Weather Roundup
Issued by NWS Sterling, VA

Home | Current Version | Previous Version | Text Only | Print | Product List | Glossary Off
Versions: 1 2 3 4 5 6 7 8 9 10 11 12 13 14 15 16 17 18 19 20 21 22 23 24 25 26 27 28 29 30 31 32 33 34 35 36 37 38 39 40 41 42 43 44 45 46 47 48 49 50

000
ASUS41 KLWX 220210
RWRLWX

REGIONAL WEATHER ROUNDUP
NATIONAL WEATHER SERVICE BALTIMORE MD/WASHINGTON DC
1000 PM EDT THU MAY 21 2015

Note: "FAIR" indicates few or no clouds below 12,000 feet
with no significant weather and/or obstructions to visibility.
 TC=TEMPERATURE CELSIUS

 * =Non NWS site. Station does not report precipitation (e.g. rain,
    snow, etc.), thunder, or fog.

DCZ001-MDZ009-015-VAZ040>042-051-053>054-220300-
WASHINGTON METRO

CITY           SKY/WX    TMP DP  RH WIND       PRES   REMARKS
WASHINGTON NAT PTCLDY    54  48  80 NW7       29.96R
DULLES         MOCLDY    53  48  83 NW6       29.96R
ANDREWS AFB    CLEAR     50  49  98 NW3       29.94R
FT BELVOIR     MOCLDY    50  48  93 CALM      29.95S FOG
QUANTICO       MOCLDY    53  49  86 NW5       29.97R
COLLEGE PARK*  PTCLDY    52  50  93 NW3       29.95R
LEESBURG*      CLOUDY    54  52  94 CALM      29.97R
MANASSAS*      CLOUDY    54  52  94 NW5       29.96R
GAITHERSBURG*  CLOUDY    50  46  87 CALM      29.99R

$$

MDZ006>007-011-014-220300-
BALTIMORE METRO

CITY           SKY/WX    TMP DP  RH WIND       PRES   REMARKS
BWI AIRPORT    MOCLDY    51  49  92 NW5       29.94R
MD SCIENCE CTR   N/A     54  45  71 MISG      29.95R
MARTIN STATE   CLOUDY    52  50  93 CALM      29.95S
ANNAPOLIS      CLOUDY    54  49  83 NW9       29.93S
FORT MEADE*    MOCLDY    50  46  87 NW3       29.97R

$$

MDZ012-015-019>023-220300-
MARYLAND EASTERN SHORE

CITY           SKY/WX    TMP DP  RH WIND       PRES   REMARKS
OCEAN CITY     LGT RAIN  53  51  93 N10       29.88S FOG
SALISBURY      LGT RAIN  52  51  97 N5        29.89S
BAY BRIDGE AP*   N/A    N/A N/A N/A CALM      29.93S
CAMBRIDGE*     CLOUDY    54  50  87 N5        29.91F
EASTON*        CLOUDY    52  52 100 NE5       29.96

$$

MDZ017>025-220300-
SOUTHERN MARYLAND

CITY           SKY/WX    TMP DP  RH WIND       PRES   REMARKS
PATUXENT RIVER CLOUDY    54  52  93 NW13      29.91S
ST INIGOES     CLOUDY    55  52  89 VRB6      29.91S
LEONARDTOWN*   CLOUDY    52  50  93 NW3       29.94R

$$

MDZ003>005-220300-
NORTH CENTRAL MARYLAND

CITY           SKY/WX    TMP DP  RH WIND       PRES   REMARKS
FREDERICK*     CLOUDY    52  50  93 NW3       29.98S
HAGERSTOWN APT CLOUDY    52  50  93 W5        29.96R FOG
WESTMINSTER*   CLOUDY    52  48  87 W3        29.95S

$$

MDZ501>502-220300-
WESTERN MARYLAND

CITY           SKY/WX    TMP DP  RH WIND       PRES   REMARKS
OAKLAND*       CLOUDY    41 N/A N/A W7        30.01R FOG
CUMBERLAND*    CLOUDY    52  46  82 NW6       30.05R

$$

VAZ025>031-220300-
SHENANDOAH VALLEY

CITY           SKY/WX    TMP DP  RH WIND       PRES   REMARKS
WINCHESTER*    CLOUDY    54  50  87 NW7       29.97R
FRONT ROYAL*   CLOUDY    52  52 100 CALM      29.96R
LURAY*         CLOUDY    55  55 100 CALM      29.98R
NEW MARKET*    CLOUDY    53  53  97 CALM      29.97R
STAUNTON*      CLOUDY    55  52  88 N3        29.99R
WAYNESBORO*    CLOUDY    53  51  94 NW7       29.98R

$$

WVZ021-048>050-054>055-220300-
EASTERN WEST VIRGINIA PANHANDLE

CITY           SKY/WX    TMP DP  RH WIND       PRES   REMARKS
MARTINSBURG    CLOUDY    53  51  93 CALM      29.97R FOG
PETERSBURG*    CLOUDY    53  44  71 CALM      30.02R

$$

VAZ036>039-050-220300-
CENTRAL FOOTHILLS

CITY           SKY/WX    TMP DP  RH WIND       PRES   REMARKS
CHARLOTTESVILL LGT RAIN  54  52  93 CALM      29.97R
CULPEPER*      CLOUDY    53  51  95 CALM      29.98R
ORANGE*        CLOUDY    54  52  94 W3        29.98
GORDONSVILLE*  CLOUDY    53  51  95 CALM      29.97R FOG
WARRENTON*     CLOUDY    54  53  97 CALM      29.96R

$$

VAZ055>057-220300-
NORTH AND CENTRAL PIEDMONT

CITY           SKY/WX    TMP DP  RH WIND       PRES   REMARKS
FREDERICKSBRG* PTCLDY    55  55 100 CALM      29.95R
STAFFORD*      MOCLDY    50  49  96 NW3       30.00R

$$

NCZ024-NYZ072-PAZ021-071-VAZ022-071-220300-
OTHER REGIONAL OBSERVATIONS

CITY           SKY/WX    TMP DP  RH WIND       PRES   REMARKS
NEW YORK CITY  CLOUDY    55  42  61 CALM      29.94S
PHILADELPHIA   CLOUDY    54  48  80 CALM      29.93F
PITTSBURGH     MOCLDY    50  41  71 W5        30.01R
ROANOKE        CLOUDY    58  46  64 NW16      30.02R
RICHMOND       CLOUDY    55  51  86 N12       29.94R
RALEIGH        MOCLDY    60  56  86 NE5       29.95R

$$

ANZ530>537-220300-
MARINE OBSERVATIONS

STATION/POSITION TIME  TEMP    WIND        PRES
                       AIR SEA DIR/SP/G
                 (UTC) (F)     (DEG/KT/KT) (MB)
THOMAS PT LIGHT  0200   53 65  320/ 10/ 12 1014.1R
BALT KEY BRIDGE  0100   53     360/  5/  7 1013.5F
COVE POINT       0100   54      20/ 12/ 15 1013.8S
LEWISETTA        0100   56 69              1012.4F
PINEY POINT      0100           10/ 11/ 13   N/A

$$



USA.gov is the U.S. government's official web portal to all federal, state and local government web resources and services.